Retour au catalogue

STARLINK-31939

ActifCommunicationsVLEO
NORAD 60026·PAYLOAD·🇺🇸 United States

Lancé Jun 8, 2024 depuis Cape Canaveral Space Force Station

Loading…

Prochains Passages (prochaines 24 heures)

TLE

FraisSource: CelesTrak SupGP

Époque: Sep 14, 2026, 21:14 UTC

1 60026C 24111L   26257.88520833  .00044807  00000+0  13241-2 0  2574
2 60026  53.1569 275.8142 0001199  85.0513 306.8975 15.34361395    15

Suivez STARLINK-31939 en temps réel avec AllMySat

Download on the App Store